Wind_Speed
24 25 25 25 25 24 24 23 22 22 22 22 23 23 22 20 20 21 22 22 22 22 23 23 22 22 23 24 24 26 26 26 26 26 26 25 25 25 25 25 25 25 25
26 26 26 25 25 26 25 23 23 23 23 23 22 23 23 21 20 21 21 21 22 22 23 24 24 23 24 24 25 26 27 27 27 27 27 27 27 26 26 26 26 26 26
27 27 26 26 26 26 25 24 24 23 23 23 22 22 22 22 22 22 21 21 22 22 22 23 24 24 24 25 25 26 26 28 28 28 28 28 28 29 28 27 27 27 27
28 27 27 25 25 25 25 24 24 23 23 23 23 22 22 23 23 22 23 22 22 23 23 23 24 24 24 25 26 26 27 28 28 29 29 30 30 30 30 29 28 28 28
26 26 25 24 24 25 25 24 23 23 23 23 23 23 23 23 23 22 22 23 23 23 23 23 24 24 25 25 26 27 27 28 28 28 29 30 30 31 31 30 30 30 30
26 24 24 24 24 24 24 24 24 23 23 23 24 24 24 24 23 23 23 23 24 25 24 24 24 25 26 26 26 27 27 28 28 29 30 30 31 31 31 31 31 31 31
26 25 25 24 24 24 24 24 24 24 24 24 24 24 25 24 24 24 24 24 24 25 24 25 25 26 26 26 27 27 28 28 29 29 30 30 31 31 31 31 32 32 32
25 25 26 25 24 23 23 24 24 24 25 24 24 24 24 24 25 25 25 25 25 25 25 25 25 26 27 27 28 28 29 29 29 29 30 31 31 32 32 33 33 32 32
26 26 26 24 22 22 22 24 24 24 25 25 24 24 24 24 24 25 26 26 26 25 25 27 27 27 28 28 28 28 29 30 30 31 31 31 31 32 32 33 33 33 33
26 26 25 24 23 22 22 23 24 24 25 26 25 24 24 25 25 25 26 26 26 26 26 26 27 28 29 28 29 29 30 31 31 31 32 32 32 33 33 33 34 34 34
26 25 24 23 23 23 23 23 24 25 25 25 25 25 26 25 26 27 26 27 27 27 27 27 28 28 29 29 28 29 30 31 32 32 32 33 33 34 34 35 35 35 35
25 24 24 24 24 24 24 24 24 24 24 25 25 25 26 26 27 27 26 26 26 27 27 27 28 28 28 29 30 31 32 33 33 32 33 34 35 35 35 36 36 36 35
24 24 24 24 23 23 23 23 23 23 24 24 24 25 26 26 27 27 27 27 27 27 27 28 28 29 29 29 31 31 32 33 33 33 33 34 36 36 36 36 37 37 37
23 22 23 22 22 22 22 22 23 23 23 24 25 25 25 25 26 26 26 26 26 26 27 27 28 30 29 29 30 30 31 31 32 33 34 35 36 36 37 37 37 38 39
22 22 22 22 22 21 21 22 23 23 23 24 24 24 24 24 25 25 25 26 26 27 27 28 28 29 29 29 29 30 30 30 30 32 33 33 35 36 37 37 38 38 38
22 21 21 21 21 21 20 21 22 22 23 23 23 23 24 24 24 24 24 26 27 28 28 28 28 28 29 28 28 28 29 29 30 31 32 32 33 34 35 36 37 37 37
21 20 20 20 21 20 20 21 22 22 21 21 22 23 24 24 24 25 26 27 27 28 28 28 27 28 28 27 27 27 27 28 29 30 31 32 32 33 34 35 36 36 37
20 20 20 20 20 20 21 21 22 21 21 21 22 23 23 23 24 24 26 26 26 26 27 26 26 26 26 26 25 26 26 27 29 29 30 31 32 33 34 35 35 36 36
19 19 19 19 20 20 21 21 21 20 20 21 22 21 21 22 22 23 24 24 24 25 25 25 25 24 24 25 25 26 26 27 28 29 29 31 31 32 34 35 35 35 37
18 17 18 19 19 19 20 20 20 20 20 20 20 20 20 20 21 21 22 23 23 23 24 24 24 24 24 24 24 25 25 26 27 27 28 29 30 30 32 33 34 35 36
17 18 18 18 18 18 19 19 19 19 18 17 18 18 18 19 20 20 22 22 22 22 22 22 23 22 22 22 23 24 24 24 25 26 26 27 28 29 30 32 33 34 35
17 17 17 17 17 17 17 17 17 16 16 16 16 17 17 18 19 19 20 21 21 21 21 21 21 21 21 20 21 22 23 23 24 25 25 26 28 28 30 31 32 33 34
16 17 17 16 16 16 16 16 15 15 15 15 15 15 16 17 18 19 19 19 19 19 19 20 20 20 20 20 20 21 22 23 23 23 24 25 27 28 29 30 30 31 33
16 16 16 15 15 14 14 13 14 14 14 14 15 15 16 17 18 18 17 18 18 18 18 18 19 20 20 20 20 21 22 22 23 22 22 23 25 26 27 28 29 30 32
15 15 15 14 13 13 13 13 13 13 14 14 14 15 16 17 17 17 17 17 17 17 16 17 18 19 19 19 19 19 20 21 21 22 22 23 23 24 26 26 27 29 30
15 14 13 12 12 12 12 12 13 13 14 13 14 15 16 16 16 16 16 16 16 16 16 15 16 17 17 18 17 18 19 20 20 21 22 22 23 24 25 26 27 28 29
Wind_Direction
291 291 289 287 287 288 288 284 284 284 284 282 281 281 279 275 271 269 270 268 267 265 265 264 261 258 256 255 253 250 249 248 247 247 248 247 247 248 248 247 246 246 245
292 290 290 289 287 287 287 287 283 281 283 283 282 281 277 276 272 271 272 270 268 266 264 264 262 260 257 257 256 253 250 249 248 249 248 247 246 246 247 247 246 247 246
290 292 292 289 289 286 285 287 284 281 280 281 280 280 277 278 276 272 273 273 270 267 266 264 262 261 260 258 257 255 253 250 250 250 249 247 246 245 246 246 246 246 246
291 291 290 288 287 287 287 287 284 281 282 280 279 279 279 280 278 275 273 272 271 268 266 266 262 260 260 259 258 257 255 253 252 251 250 247 246 245 246 247 247 246 245
291 289 289 288 288 287 288 288 286 282 282 281 280 278 277 278 278 275 273 274 272 270 268 266 262 260 261 260 259 258 257 254 253 252 251 249 247 246 246 246 246 246 245
292 290 288 288 288 286 286 288 287 284 283 282 280 279 277 276 275 274 273 274 274 271 267 265 262 261 261 260 259 258 256 255 254 253 251 250 249 247 246 246 245 245 245
293 293 289 289 287 285 285 286 286 286 285 285 281 279 276 274 274 272 273 273 274 272 267 266 265 262 261 261 259 258 257 256 254 252 251 251 250 249 247 246 246 246 245
295 293 290 287 286 284 283 284 286 287 286 285 283 280 277 274 275 275 274 274 273 272 270 269 268 265 263 262 262 262 260 256 254 252 252 252 251 250 248 247 247 247 247
293 290 290 286 287 285 285 284 286 288 287 285 284 282 279 276 275 275 275 274 272 270 269 269 268 267 266 263 263 262 262 259 256 254 253 253 252 252 251 249 248 248 248
293 290 289 285 286 288 286 285 286 287 290 287 285 283 280 278 276 275 274 273 272 272 272 271 268 269 268 266 264 264 262 261 259 257 255 254 253 253 253 252 250 249 248
293 292 289 286 286 286 286 286 287 289 290 289 286 284 281 279 281 278 274 272 272 273 274 273 271 270 269 268 266 265 264 262 261 259 256 254 254 254 254 253 252 251 249
291 291 289 288 288 290 290 289 288 289 290 289 288 286 284 282 281 279 277 276 275 272 272 272 272 271 271 268 266 265 263 262 261 259 257 256 255 254 254 253 253 251 250
291 290 288 289 290 290 289 289 289 290 289 289 289 288 285 283 283 281 279 278 275 273 272 273 273 272 272 270 268 266 264 263 260 258 257 255 255 255 254 254 253 252 251
294 291 290 291 292 291 288 289 292 293 291 290 291 290 287 286 285 282 281 279 276 275 276 276 274 271 271 271 269 267 265 263 261 259 257 256 255 254 254 254 254 254 252
295 294 292 292 293 291 289 290 291 293 294 293 293 291 289 287 286 283 283 281 280 278 278 279 275 274 273 272 272 268 265 262 261 260 257 255 255 254 254 254 254 254 252
295 296 293 292 292 291 290 292 295 295 295 295 292 292 291 289 288 286 285 284 283 280 280 281 278 277 275 274 273 270 267 263 262 260 257 256 256 255 255 255 254 254 254
295 295 294 293 292 291 292 294 295 297 296 295 292 292 292 290 289 288 286 284 284 282 280 280 280 277 273 271 271 270 269 266 265 262 260 258 257 257 257 256 255 254 253
294 295 296 294 293 292 293 293 294 295 296 296 296 294 292 290 290 289 287 285 284 282 282 281 279 277 272 271 270 271 269 267 267 265 262 260 259 258 256 256 255 253 252
294 296 297 297 295 295 295 295 294 294 295 296 298 296 295 294 292 291 289 287 286 285 285 284 282 280 276 272 271 271 270 270 271 268 264 260 259 259 258 256 255 253 252
297 299 299 297 296 296 296 296 296 295 295 297 298 296 296 296 295 293 292 289 289 288 288 286 285 283 279 275 273 272 273 272 272 270 266 261 260 260 259 257 256 254 253
302 302 301 299 298 298 297 297 296 297 298 300 300 298 297 298 298 299 297 294 292 290 289 288 285 285 282 277 275 273 273 271 272 274 271 266 263 261 259 259 258 256 254
306 305 302 301 302 299 297 300 300 301 302 304 305 303 302 302 302 303 304 300 296 295 293 291 287 287 285 282 279 276 273 274 273 272 271 268 266 264 262 262 260 258 256
305 305 304 302 301 302 302 302 304 307 308 306 306 307 309 308 307 305 305 305 302 300 298 294 291 290 289 286 283 282 279 278 277 274 270 267 267 266 265 263 261 260 259
310 308 305 302 301 303 304 303 305 306 308 307 307 309 310 311 310 308 306 307 307 305 302 298 294 292 291 287 286 286 284 282 279 276 273 270 267 266 266 264 262 261 260
318 317 313 308 305 306 306 306 308 311 314 311 311 312 313 315 315 315 314 314 312 311 308 303 299 295 294 292 289 289 289 288 286 280 276 273 272 270 267 266 265 263 262
323 322 318 313 311 310 310 310 311 314 316 314 314 316 317 317 318 319 318 317 316 315 314 311 305 302 298 296 293 292 293 293 290 286 280 277 275 272 269 267 266 264 263
Height
5823 5822 5822 5821 5820 5819 5818 5817 5817 5816 5815 5815 5814 5814 5814 5814 5814 5815 5815 5816 5815 5816 5817 5818 5819 5821 5822 5824 5825 5826 5828 5830 5832 5834 5836 5837 5839 5841 5843 5844 5846 5848 5850
5818 5817 5816 5814 5814 5813 5813 5812 5811 5810 5809 5809 5809 5809 5808 5809 5809 5809 5810 5810 5811 5812 5812 5813 5814 5815 5816 5818 5819 5821 5822 5824 5826 5828 5830 5832 5833 5835 5837 5839 5841 5843 5845
5811 5810 5809 5809 5808 5807 5807 5806 5805 5804 5804 5804 5803 5803 5803 5803 5804 5804 5804 5805 5806 5806 5807 5807 5808 5809 5810 5812 5813 5815 5816 5818 5819 5821 5823 5825 5827 5829 5831 5833 5835 5837 5840
5804 5803 5802 5802 5801 5801 5800 5800 5799 5799 5798 5798 5798 5798 5798 5798 5798 5798 5798 5799 5800 5800 5801 5802 5802 5803 5804 5805 5807 5808 5810 5811 5813 5815 5816 5818 5820 5823 5825 5827 5829 5831 5833
5798 5797 5796 5796 5795 5795 5794 5794 5793 5793 5792 5792 5792 5792 5792 5792 5792 5793 5793 5793 5794 5794 5795 5795 5796 5797 5798 5799 5800 5802 5803 5805 5806 5808 5810 5811 5813 5815 5818 5820 5822 5824 5827
5792 5791 5790 5790 5789 5789 5788 5788 5787 5787 5786 5786 5785 5786 5786 5786 5786 5787 5787 5787 5788 5788 5788 5789 5790 5791 5792 5793 5794 5795 5796 5798 5799 5801 5803 5804 5806 5808 5810 5813 5815 5817 5820
5786 5785 5785 5784 5783 5783 5782 5782 5781 5780 5780 5779 5779 5779 5780 5780 5780 5781 5781 5781 5782 5782 5781 5783 5784 5784 5785 5786 5787 5788 5789 5791 5792 5794 5796 5797 5799 5801 5803 5805 5808 5810 5812
5781 5780 5779 5778 5777 5777 5776 5776 5775 5774 5774 5773 5772 5772 5773 5774 5773 5774 5773 5773 5774 5775 5775 5776 5777 5777 5778 5779 5780 5780 5782 5783 5785 5786 5788 5790 5791 5793 5796 5798 5800 5802 5805
5775 5774 5773 5771 5770 5770 5770 5770 5769 5768 5768 5767 5766 5765 5766 5767 5767 5767 5766 5767 5767 5767 5768 5768 5770 5770 5771 5772 5773 5773 5774 5775 5777 5779 5780 5782 5784 5786 5788 5790 5792 5795 5797
5769 5767 5766 5765 5764 5764 5764 5764 5763 5762 5761 5760 5759 5758 5759 5759 5759 5760 5760 5759 5759 5760 5760 5761 5762 5762 5763 5764 5765 5766 5767 5768 5769 5770 5772 5774 5776 5778 5780 5782 5784 5786 5789
5762 5761 5760 5759 5758 5758 5758 5757 5756 5755 5754 5753 5752 5752 5752 5751 5750 5750 5751 5752 5751 5752 5752 5753 5754 5754 5755 5755 5756 5757 5758 5759 5760 5761 5763 5764 5766 5769 5771 5773 5775 5777 5780
5756 5755 5753 5753 5752 5752 5751 5750 5749 5748 5747 5746 5746 5745 5745 5744 5743 5742 5743 5744 5744 5744 5745 5745 5745 5746 5746 5746 5747 5747 5748 5750 5751 5752 5754 5755 5757 5759 5761 5763 5766 5768 5770
5749 5748 5747 5746 5746 5745 5745 5744 5743 5742 5741 5740 5739 5738 5738 5737 5736 5736 5735 5736 5736 5737 5737 5737 5737 5737 5737 5737 5737 5738 5739 5740 5741 5742 5744 5745 5747 5749 5751 5753 5756 5758 5761
5743 5742 5741 5740 5739 5739 5738 5738 5737 5736 5735 5734 5732 5731 5730 5730 5729 5728 5728 5728 5728 5729 5728 5728 5728 5728 5728 5728 5728 5728 5729 5730 5731 5732 5733 5735 5737 5739 5741 5743 5746 5748 5751
5737 5736 5735 5735 5734 5733 5733 5732 5731 5729 5728 5727 5726 5724 5723 5723 5722 5721 5720 5720 5720 5720 5721 5720 5719 5719 5719 5719 5719 5719 5719 5720 5721 5722 5723 5725 5726 5729 5731 5733 5736 5738 5740
5731 5731 5730 5729 5728 5728 5727 5726 5724 5723 5722 5720 5719 5718 5717 5716 5715 5714 5713 5713 5712 5712 5712 5711 5710 5710 5709 5709 5709 5709 5709 5710 5711 5712 5713 5714 5716 5718 5720 5723 5725 5727 5730
5726 5726 5725 5724 5723 5722 5721 5720 5718 5717 5716 5714 5713 5712 5711 5709 5708 5707 5706 5705 5704 5703 5703 5703 5701 5700 5700 5700 5700 5700 5700 5701 5702 5702 5703 5704 5706 5708 5710 5712 5714 5716 5719
5721 5720 5719 5718 5717 5716 5715 5714 5713 5712 5710 5708 5707 5705 5704 5703 5701 5700 5698 5697 5696 5694 5694 5693 5693 5692 5691 5691 5691 5691 5691 5691 5692 5692 5693 5694 5695 5697 5699 5701 5703 5706 5708
5716 5715 5714 5713 5712 5710 5709 5708 5707 5705 5704 5702 5701 5699 5698 5696 5695 5693 5691 5690 5688 5687 5686 5685 5684 5683 5683 5682 5682 5682 5682 5682 5682 5682 5683 5684 5685 5687 5688 5690 5692 5695 5697
5711 5710 5709 5708 5706 5705 5704 5702 5701 5700 5698 5697 5695 5693 5692 5691 5689 5687 5685 5683 5682 5680 5678 5677 5676 5675 5675 5674 5674 5674 5674 5673 5673 5673 5673 5674 5675 5677 5678 5680 5682 5684 5686
5707 5705 5704 5703 5701 5700 5698 5697 5696 5694 5693 5692 5690 5688 5687 5685 5683 5681 5679 5677 5675 5673 5672 5670 5669 5668 5667 5666 5666 5666 5666 5665 5665 5664 5665 5665 5667 5668 5668 5670 5671 5673 5675
5702 5701 5700 5698 5697 5695 5694 5692 5691 5689 5689 5687 5686 5684 5682 5680 5678 5676 5674 5671 5669 5667 5665 5663 5662 5661 5660 5659 5659 5658 5658 5658 5658 5658 5657 5657 5658 5659 5659 5661 5662 5663 5664
5698 5697 5695 5694 5692 5691 5690 5688 5686 5685 5684 5683 5681 5679 5678 5675 5673 5672 5669 5666 5663 5660 5659 5657 5655 5654 5653 5652 5652 5651 5651 5650 5650 5649 5649 5649 5649 5650 5650 5651 5652 5653 5654
5695 5693 5691 5690 5688 5687 5686 5684 5683 5682 5680 5679 5677 5675 5673 5671 5668 5666 5664 5661 5658 5655 5653 5651 5650 5648 5647 5646 5645 5645 5644 5643 5643 5641 5641 5641 5641 5641 5641 5642 5642 5643 5644
5691 5689 5688 5686 5685 5684 5682 5681 5680 5678 5676 5675 5673 5671 5669 5667 5664 5661 5659 5656 5653 5651 5648 5646 5644 5643 5641 5640 5639 5638 5637 5637 5636 5635 5634 5633 5633 5633 5633 5633 5633 5633 5634
5688 5687 5686 5684 5682 5681 5679 5678 5677 5675 5673 5671 5669 5667 5665 5662 5660 5657 5655 5652 5649 5647 5644 5642 5640 5638 5636 5635 5634 5633 5632 5630 5629 5628 5627 5626 5625 5625 5625 5624 5624 5624 5624